Theta_e
320 320 320 321 321 321 321 322 322 322 322 322 322 322 322 323 324 325 324 324 325 325 325 324 324 324 325 324 324 324 325 326 327 326 326 326 327 326 325 325 324 323 323 324 324 325 325 326 326 327 328 328 328 329 329 330 330 330 329 329 330 330 329 329 328 327 326 325 326 327 328 329 329 329 329 328 328 328 327 327 327 326 326 325 324
318 318 319 320 321 321 321 321 321 321 322 321 321 322 322 323 324 324 323 323 324 325 325 325 325 325 325 325 324 325 326 326 326 325 325 326 326 326 326 327 326 324 322 323 324 323 324 324 324 324 326 328 328 328 328 329 329 330 329 329 329 329 330 329 328 328 328 328 328 328 327 328 329 329 329 329 328 328 328 328 327 326 326 325 324
318 318 319 320 321 321 321 321 321 321 322 322 322 322 322 322 321 321 321 321 322 323 323 324 324 324 324 325 325 325 325 325 325 325 325 325 325 326 326 326 326 325 324 323 323 323 324 324 324 325 326 326 326 326 327 328 329 330 329 329 327 325 327 329 329 328 328 328 328 328 328 328 329 329 329 329 328 328 328 327 327 327 326 326 325
318 318 319 320 321 321 321 322 322 321 321 321 321 321 321 320 320 320 319 319 320 321 322 322 322 323 324 324 324 324 324 325 325 324 324 325 325 325 326 325 325 326 326 325 325 325 326 324 323 323 325 325 325 325 326 325 326 327 328 327 323 321 325 328 328 328 328 328 328 328 328 328 329 329 328 328 328 328 328 327 327 327 326 325 325
317 317 317 319 321 322 322 322 321 321 320 320 320 320 319 318 319 319 319 318 319 320 321 322 322 323 323 324 324 324 324 324 324 324 324 324 324 324 326 326 326 326 325 325 325 327 328 326 325 324 325 326 326 326 325 324 323 322 323 324 323 323 325 324 324 326 328 328 328 327 328 328 328 328 328 328 328 328 328 327 327 327 326 326 326
317 317 317 319 321 321 321 320 320 319 319 319 319 318 318 318 318 318 318 319 319 320 321 321 322 323 323 324 324 323 323 323 323 323 323 323 323 324 325 326 326 325 325 325 325 326 327 327 327 327 327 327 326 325 323 324 324 322 320 323 326 327 325 322 321 324 327 327 327 327 327 328 328 327 328 329 328 328 328 327 327 327 326 326 326
317 317 318 320 321 320 320 319 319 319 319 319 319 318 318 317 317 318 319 320 320 320 321 321 321 322 322 322 322 322 322 322 322 321 322 322 322 323 323 324 324 324 325 325 326 326 326 326 327 327 327 327 327 326 325 325 326 325 321 321 323 325 327 326 324 325 327 327 326 326 327 327 328 327 328 328 328 328 328 327 327 327 326 326 325
317 318 319 319 319 319 319 319 319 319 319 319 318 317 317 317 317 318 318 319 319 319 320 320 320 320 320 320 320 320 319 319 320 320 320 320 321 322 322 322 323 324 324 325 325 325 325 325 326 327 327 327 327 327 327 327 327 327 324 321 322 324 326 328 327 327 328 328 327 327 327 327 327 327 327 327 327 327 327 327 327 326 325 324 324
317 318 318 318 318 319 319 319 319 319 319 318 317 317 317 317 317 317 317 317 318 319 320 320 320 319 319 318 318 317 317 317 317 317 317 317 318 320 320 320 320 321 322 322 322 322 323 324 325 326 327 327 327 327 327 327 327 328 327 326 325 326 327 328 328 328 328 328 327 327 327 327 327 327 327 327 327 326 326 326 326 323 323 324 323
317 317 317 317 317 318 318 317 318 318 317 317 317 316 316 316 316 316 316 316 317 318 319 319 319 318 318 317 317 316 316 317 318 316 315 315 315 317 317 317 317 318 319 319 319 320 321 322 323 325 326 327 327 327 327 327 327 327 327 327 327 327 327 327 327 328 328 327 327 327 327 327 327 326 327 327 327 326 326 325 324 322 323 323 322
316 316 316 316 317 317 317 316 316 316 316 316 316 316 316 315 315 315 315 316 316 317 318 318 317 317 317 317 317 317 317 319 319 318 316 316 315 315 315 315 315 315 316 316 317 318 320 321 321 322 324 325 325 326 327 327 327 327 327 327 327 327 327 327 327 327 327 327 327 327 327 327 327 327 327 327 327 326 326 324 323 322 322 321 320
314 315 315 316 317 317 317 316 316 316 316 316 315 315 315 315 315 315 315 315 315 315 316 316 316 316 317 316 316 316 317 318 318 318 317 317 316 316 315 314 314 314 315 315 316 318 320 320 320 320 321 322 323 323 324 325 326 327 327 327 327 327 327 327 327 326 326 326 327 326 327 327 327 327 327 327 326 326 326 324 321 321 321 319 319
314 314 315 316 317 317 317 316 316 315 315 315 315 315 314 314 314 315 314 314 314 314 314 315 315 315 315 315 315 315 315 316 316 317 317 317 317 317 316 316 316 316 317 317 318 319 320 320 320 320 320 320 320 320 321 321 323 324 325 325 326 327 327 326 326 326 326 325 325 325 325 325 326 327 327 327 326 326 326 323 320 320 319 317 318
313 314 313 314 316 316 316 316 315 315 314 314 314 314 314 314 314 314 314 314 314 314 314 314 314 314 314 314 314 314 314 314 315 315 315 316 316 317 316 316 317 317 318 318 319 319 319 319 319 319 318 318 318 318 319 319 320 321 322 323 324 325 326 326 326 326 325 325 325 325 324 324 325 326 326 327 326 326 325 321 319 318 317 316 318
312 312 312 312 314 315 315 315 314 314 314 313 313 313 313 313 313 313 314 314 314 314 313 313 313 313 313 313 313 313 313 313 313 313 314 314 315 315 315 316 316 316 316 317 318 318 318 318 317 318 318 317 317 317 317 317 318 318 320 321 322 322 323 323 324 325 324 324 324 324 323 323 324 324 325 325 325 324 322 319 318 319 318 318 319
311 312 312 312 314 314 314 314 313 313 313 312 312 312 312 312 312 312 312 313 313 313 313 312 312 312 312 312 312 312 311 311 311 312 312 312 313 313 313 314 314 314 314 315 315 316 316 316 316 316 316 316 316 316 316 316 316 316 316 317 318 319 318 317 319 321 322 322 322 322 322 322 322 323 323 323 323 323 321 320 320 320 320 320 320
312 312 313 313 314 314 313 313 313 312 312 312 312 311 311 311 311 311 311 311 311 311 310 310 310 310 310 310 310 310 309 309 310 310 310 311 311 312 312 312 312 313 313 313 313 313 313 313 313 314 314 315 316 316 316 315 314 315 315 315 315 316 315 314 315 316 317 318 320 321 321 321 322 322 321 321 321 322 322 322 320 319 320 321 321
312 312 312 312 312 312 312 312 312 311 311 310 310 309 309 309 309 310 310 310 309 308 307 307 306 306 306 306 306 306 306 306 306 307 308 309 310 310 310 311 311 311 310 310 310 311 310 310 311 312 312 313 314 315 315 315 314 314 315 315 315 315 315 314 315 315 316 316 318 319 319 320 321 321 321 321 321 321 321 320 319 318 319 320 321
311 311 311 310 310 310 310 309 309 308 308 307 307 307 307 307 307 307 307 306 305 304 303 303 303 302 302 302 302 302 302 302 302 303 304 305 306 307 307 308 309 308 308 308 308 308 308 308 308 308 309 310 311 312 313 314 314 315 315 315 314 314 314 315 315 315 315 315 316 316 316 317 318 319 320 320 320 320 320 319 319 319 319 319 319
309 309 309 308 308 308 307 307 306 305 305 304 304 304 304 304 304 303 303 303 302 302 301 301 300 300 299 299 299 299 299 298 298 299 299 300 301 302 303 304 304 305 305 306 306 306 306 306 305 305 306 306 307 308 309 310 311 312 314 313 312 311 312 313 314 314 314 314 314 314 313 313 314 315 315 317 318 318 319 319 319 318 318 318 319
307 307 306 306 305 305 304 303 303 302 302 301 301 301 301 301 301 301 300 300 300 299 299 299 299 298 298 298 297 297 297 297 297 297 297 297 298 298 298 299 300 301 302 302 303 303 303 303 303 302 303 304 304 305 306 307 308 309 310 310 309 309 311 312 312 312 312 312 312 312 312 311 311 311 312 313 313 314 315 317 318 318 318 318 318
304 304 303 303 302 302 301 301 300 300 300 299 299 299 299 299 298 298 298 298 298 297 297 297 297 297 296 296 296 296 296 296 296 296 296 297 297 297 297 297 298 298 298 299 300 300 301 301 301 300 300 301 302 303 303 304 305 306 307 307 308 308 309 310 310 310 310 310 310 310 311 311 311 310 310 311 310 310 311 312 314 315 316 316 316
301 301 300 299 299 298 298 298 298 298 298 297 297 297 297 297 296 296 296 296 296 296 296 296 296 295 295 296 296 296 296 296 296 296 296 296 296 296 297 297 297 297 297 298 298 299 299 300 299 299 299 299 299 300 300 301 302 303 304 305 306 306 307 307 307 307 308 308 308 308 308 308 308 308 309 309 308 308 308 309 309 310 311 312 313
297 297 297 297 296 296 296 296 296 296 296 296 296 296 295 295 295 295 295 295 295 295 295 295 295 295 295 296 296 296 295 295 295 295 295 295 295 296 296 296 296 296 297 297 298 298 298 299 299 298 298 299 299 299 299 299 299 299 300 301 303 304 305 305 305 305 305 306 305 305 305 304 305 305 305 305 305 305 306 306 307 307 307 308 309
296 296 296 296 296 296 296 295 295 295 295 295 295 295 295 295 295 295 295 295 295 295 295 295 295 295 295 295 295 295 295 295 295 295 295 295 295 295 295 296 296 296 296 297 297 298 298 298 298 298 297 298 299 299 299 299 299 299 298 298 299 300 301 302 302 303 303 303 303 303 303 302 302 302 302 302 303 303 304 304 304 304 304 304 305
297 296 296 296 296 296 296 295 295 295 295 295 295 295 295 295 295 294 294 294 295 295 295 295 295 295 295 295 295 295 295 294 294 294 294 294 294 295 295 296 296 295 295 296 296 296 296 297 297 297 297 297 298 298 298 298 299 298 298 298 297 297 298 299 299 300 300 301 301 301 301 301 301 301 301 301 301 302 302 302 302 302 303 303 303
297 296 296 296 296 296 295 295 295 295 294 294 294 294 294 294 294 294 294 295 295 295 295 295 295 295 295 295 295 295 295 294 294 294 294 294 294 294 294 295 295 294 294 294 295 295 295 295 295 295 295 296 296 297 297 297 297 297 297 298 298 297 297 297 298 298 299 299 300 300 300 300 301 301 301 301 301 301 301 301 301 301 301 301 302
297 297 297 296 296 296 295 295 295 295 294 294 294 294 294 294 294 294 295 295 295 295 295 295 295 295 295 295 295 294 294 294 294 294 294 294 294 294 294 293 293 293 293 293 293 293 293 294 294 293 294 294 295 295 295 296 296 297 297 297 298 297 297 297 298 298 299 299 299 299 299 299 299 300 300 301 301 301 300 300 300 301 300 300 301
297 297 297 296 296 296 295 295 295 295 294 294 294 294 294 294 294 294 295 295 295 295 295 295 295 295 295 295 295 295 295 295 295 295 294 294 294 293 293 293 292 292 292 293 293 293 293 293 293 293 294 294 294 295 295 295 296 296 296 296 297 297 297 297 298 298 298 298 299 299 299 299 299 298 299 299 300 300 300 300 300 300 300 300 300
297 297 297 296 296 296 295 294 294 294 294 294 294 294 294 295 295 295 295 295 295 295 295 295 295 295 295 295 295 295 295 295 294 294 294 294 293 293 293 292 291 291 291 292 292 293 293 293 293 293 294 294 294 295 296 295 295 296 296 295 296 297 297 297 297 298 298 298 298 299 299 299 299 298 298 298 299 299 300 300 300 299 299 299 299
298 297 297 297 296 296 295 294 294 294 294 294 294 294 294 295 295 295 295 295 295 295 295 295 295 295 295 295 295 295 294 294 294 294 293 293 293 293 292 291 291 291 291 292 292 292 292 292 292 293 294 294 294 294 295 295 295 296 295 295 296 296 297 297 297 297 298 298 298 298 298 299 299 299 298 298 298 298 299 300 299 298 298 298 298
298 297 297 296 296 296 296 295 295 294 294 294 294 294 294 294 295 295 295 295 294 294 294 294 294 294 294 294 294 294 293 293 293 293 293 293 292 291 291 290 290 290 291 292 292 292 291 291 292 293 294 294 294 294 294 294 295 295 295 295 296 296 296 296 296 297 297 297 297 297 297 298 298 299 298 299 299 299 299 300 299 298 298 298 298
298 298 297 296 296 297 296 296 295 295 294 294 294 294 294 294 295 295 295 294 294 294 294 293 293 293 293 293 293 292 292 292 292 292 292 292 291 291 290 290 290 290 290 291 291 291 291 291 291 292 293 294 294 294 294 294 294 294 295 295 296 296 296 296 296 296 297 297 297 297 297 297 298 298 298 298 298 298 299 299 299 299 298 298 298
298 298 297 296 296 297 297 296 296 296 295 295 294 294 294 294 294 295 295 294 294 294 294 294 294 293 293 293 293 292 292 292 292 292 291 291 290 290 290 290 290 290 290 290 290 290 290 290 291 292 293 293 294 294 294 294 294 294 295 295 295 295 295 295 295 296 297 297 297 297 297 297 297 297 297 297 298 298 298 298 299 299 298 298 298
298 298 297 297 296 297 297 296 296 296 296 295 295 295 294 294 294 294 294 294 294 294 294 294 294 294 294 293 293 293 292 292 292 291 291 291 290 290 291 291 291 290 290 290 289 289 289 289 290 290 291 292 293 293 294 294 294 294 294 295 295 295 295 295 295 295 296 296 296 296 296 296 296 296 296 297 297 297 297 297 298 298 298 298 298
298 298 297 297 297 297 297 296 296 296 296 296 295 295 295 295 294 294 294 294 294 294 294 294 294 294 294 294 293 293 293 293 292 292 292 291 291 291 291 291 291 291 290 290 290 290 289 289 289 289 290 291 292 293 293 293 293 294 294 295 295 295 295 295 295 295 295 296 296 295 296 296 296 295 295 295 296 296 296 296 297 297 298 298 298
297 298 297 297 297 296 296 296 296 296 296 296 296 295 295 295 295 294 294 294 294 294 294 294 294 294 294 294 294 293 293 293 293 293 293 292 292 292 291 291 291 291 290 290 290 290 290 289 289 288 288 289 290 291 292 292 292 293 293 294 294 294 294 294 295 295 295 295 295 295 295 295 295 295 295 295 295 295 296 296 296 296 296 297 297
297 297 297 297 296 296 296 296 296 296 296 296 296 295 295 295 295 294 294 294 295 295 295 295 295 295 294 294 294 294 293 293 293 293 293 293 293 292 292 291 291 291 291 290 290 290 290 290 289 289 288 288 288 289 290 291 292 292 292 293 293 294 294 294 294 294 294 295 295 295 295 295 295 294 294 294 294 294 294 295 295 295 295 295 296
296 296 297 297 296 296 296 296 296 296 296 296 296 296 295 295 295 295 295 295 295 295 295 295 295 295 295 295 294 294 294 293 293 293 293 293 293 293 293 292 292 292 292 291 290 290 290 290 290 290 289 288 288 287 288 288 289 290 291 292 293 293 293 293 293 294 294 294 294 294 294 294 293 293 293 293 293 293 293 293 293 294 294 294 295
296 296 296 296 296 296 296 296 296 296 296 296 296 296 295 295 295 295 295 295 295 295 295 295 295 295 295 295 295 295 295 294 294 294 294 294 293 293 293 293 293 293 293 292 291 291 291 291 291 291 290 289 289 288 288 287 287 288 289 290 291 292 292 293 293 294 294 294 294 294 294 293 293 293 293 293 292 292 292 292 292 292 293 293 294
296 296 296 296 296 296 296 296 296 296 296 295 295 296 296 295 295 295 296 296 296 296 296 295 295 296 295 295 295 295 295 295 295 294 294 294 294 294 294 293 293 293 293 293 292 292 292 292 292 291 291 291 290 289 289 288 288 287 287 288 289 290 291 292 293 293 293 293 294 294 294 294 294 294 293 293 293 293 292 292 291 291 292 292 293
297 296 296 296 296 296 296 296 296 296 296 296 296 296 296 295 295 295 296 296 296 296 296 296 296 296 296 295 295 295 295 295 295 295 294 294 295 294 294 294 294 293 293 293 293 293 293 292 292 292 291 291 291 290 290 289 289 288 288 287 287 287 288 290 291 292 293 293 293 293 294 294 294 294 294 293 293 293 292 292 292 292 291 292 292
297 297 297 297 296 296 296 296 296 296 296 296 296 296 296 295 295 296 296 296 296 296 296 296 296 296 296 296 295 295 295 295 295 295 295 295 295 294 294 294 294 293 293 293 293 293 293 292 292 292 292 291 291 291 290 289 289 288 288 288 288 287 287 287 288 289 291 292 293 293 293 293 294 294 293 293 293 293 292 292 292 292 292 292 292
297 297 297 297 297 296 296 296 296 296 296 296 296 296 295 295 296 296 296 296 296 296 296 296 296 296 296 296 295 295 295 295 295 295 295 295 295 294 294 294 293 293 293 293 293 293 293 292 292 292 292 292 292 291 290 289 288 288 288 288 288 288 288 287 286 286 287 289 292 293 293 293 293 293 293 293 293 293 293 293 292 292 292 292 292
297 296 297 297 297 297 297 296 296 296 296 296 296 296 296 296 296 296 296 296 296 296 296 296 296 296 296 296 295 295 295 295 295 295 295 294 294 294 294 294 294 293 293 293 293 293 293 292 292 292 292 292 293 292 290 289 288 289 288 287 287 288 288 288 288 287 286 287 289 291 293 293 293 292 293 293 293 293 292 292 292 292 292 292 292
297 297 297 297 297 297 297 297 297 296 296 296 296 296 296 296 296 296 296 296 296 296 296 296 296 296 296 296 296 295 295 295 295 295 295 294 294 294 294 294 294 293 293 293 293 293 293 292 292 292 292 293 293 292 291 290 289 289 289 288 287 287 287 287 287 288 287 286 286 287 289 292 293 293 293 292 292 292 292 292 292 292 291 292 292
298 297 297 297 297 297 297 297 297 297 296 296 296 296 296 296 296 296 296 296 296 296 296 296 296 296 296 296 296 295 295 295 295 295 295 294 294 294 294 294 293 293 293 293 293 293 293 293 293 293 293 293 293 293 292 291 290 290 290 289 289 288 288 287 287 287 287 288 287 286 286 288 290 292 293 293 292 292 292 292 292 292 291 291 292
298 298 298 297 297 297 297 297 297 297 297 297 296 296 296 296 296 296 296 296 296 296 296 296 296 296 296 296 295 295 295 295 295 295 295 295 294 294 294 294 293 293 293 293 293 293 293 293 293 293 293 293 293 293 292 291 291 290 290 290 290 289 289 288 288 287 287 287 287 287 286 286 286 288 290 291 292 293 292 292 291 291 292 292 292
298 298 298 298 297 297 297 297 297 297 297 297 296 296 296 296 296 296 296 296 296 296 296 296 296 296 296 296 295 295 295 295 295 295 295 295 295 294 294 294 294 293 293 293 293 292 292 292 292 292 293 293 293 293 293 292 291 291 291 291 290 290 290 289 289 288 287 287 287 287 287 287 286 285 286 287 289 291 292 292 292 291 291 291 291
298 298 298 298 297 297 297 297 297 297 297 297 296 297 297 297 296 296 296 296 296 296 296 296 296 296 296 296 295 295 295 295 295 295 295 295 294 294 294 294 294 293 293 293 292 292 292 292 292 292 292 292 292 292 292 292 291 291 291 291 291 290 290 290 290 289 289 288 287 287 287 287 286 286 285 285 286 286 288 290 292 292 292 291 291
298 298 298 298 297 297 297 297 297 297 297 297 297 297 297 297 297 297 297 297 296 296 296 296 296 296 296 296 295 295 295 295 295 294 294 294 294 294 294 294 293 293 292 292 292 292 292 292 292 292 292 292 292 292 292 292 292 291 291 291 291 291 290 290 290 290 290 290 289 288 287 287 287 286 285 285 285 285 285 287 289 291 292 292 292
Wind_Speed
7 7 6 4 3 3 3 3 3 2 3 6 8 8 7 6 6 8 9 9 9 11 13 15 16 16 16 16 16 16 17 16 16 16 16 15 14 13 13 13 13 14 14 13 11 11 11 10 10 11 14 19 22 23 22 23 24 26 27 27 28 29 29 31 31 28 25 24 24 24 24 26 28 30 31 32 31 31 31 31 31 30 28 27 27
4 3 2 2 2 2 1 1 1 2 4 6 7 6 6 6 7 8 9 9 9 11 13 14 15 16 15 15 15 16 17 16 16 16 16 16 15 14 14 14 13 12 12 13 12 12 12 12 10 9 10 13 16 20 20 20 22 24 24 24 24 23 24 28 29 28 27 26 25 24 23 24 27 29 31 32 32 32 32 33 32 31 29 28 28
1 1 1 1 1 1 1 1 1 2 3 4 5 5 6 6 7 9 10 11 10 11 13 14 15 15 16 16 16 17 17 17 16 16 17 17 17 16 16 14 13 12 10 11 12 11 11 11 11 10 9 10 10 11 13 14 16 21 23 19 16 17 21 25 27 26 26 25 24 24 22 23 26 28 29 32 32 32 33 34 33 32 30 29 27
2 2 1 1 1 1 1 1 1 1 2 3 4 5 6 7 9 10 11 12 12 13 14 15 16 17 17 18 18 18 18 17 16 16 17 17 17 17 16 14 13 12 10 10 11 12 11 10 9 10 10 10 9 8 7 7 8 13 17 14 15 21 23 21 20 20 21 21 21 21 21 23 26 28 29 30 30 31 33 33 32 31 29 28 27
2 1 1 1 2 3 3 3 2 2 2 3 4 6 8 9 9 9 11 13 14 15 15 15 17 18 18 17 18 18 18 17 17 17 17 17 16 16 15 13 12 11 10 10 12 14 13 10 8 8 10 10 7 5 4 4 4 5 9 12 17 21 17 12 14 15 16 19 19 17 19 23 25 27 28 27 27 29 31 31 30 28 27 26 27
2 1 2 4 5 6 5 4 3 2 3 4 6 7 9 9 9 10 12 14 15 15 15 15 16 16 16 15 15 15 16 17 18 19 18 17 17 15 14 13 13 13 13 12 13 14 14 12 10 8 9 10 7 4 5 5 2 4 9 12 15 15 12 13 16 18 18 19 18 16 18 21 23 24 25 25 26 28 29 30 29 28 26 26 27
2 3 5 7 8 7 5 5 5 5 6 7 8 8 9 10 12 14 15 14 14 15 14 14 14 14 14 14 14 15 16 18 19 20 19 18 17 16 16 16 16 16 16 14 14 14 14 14 13 11 9 9 8 5 5 5 6 8 10 10 10 11 12 13 16 19 19 18 18 17 18 19 21 22 22 24 25 26 28 29 28 27 26 26 25
5 7 8 9 8 8 8 9 9 10 11 11 11 12 13 14 15 15 14 13 14 14 13 13 13 13 15 15 16 17 18 19 20 20 19 19 19 18 17 17 18 18 18 17 16 16 16 15 14 13 11 8 7 7 6 5 5 7 9 11 11 13 15 15 15 17 18 18 19 19 19 19 20 22 22 23 24 25 27 28 27 27 27 25 24
8 10 10 10 11 12 13 13 14 14 14 15 15 16 16 15 14 13 12 13 13 12 12 12 12 13 14 15 16 17 19 20 20 20 20 20 20 20 20 20 21 21 21 21 20 19 18 17 16 15 13 10 7 7 6 5 4 4 6 10 12 14 15 15 15 16 18 19 20 21 20 20 21 24 26 26 26 25 26 28 28 26 26 25 23
10 10 10 12 14 15 16 15 15 16 15 16 16 16 15 13 12 12 13 13 12 12 12 11 11 12 12 13 14 15 17 19 18 17 19 19 18 17 17 18 20 21 21 22 23 22 20 18 17 16 14 12 9 8 7 5 4 3 4 5 8 11 12 13 14 16 18 20 22 22 23 22 23 25 27 27 27 25 26 28 26 24 25 26 24
11 11 12 14 15 16 15 15 15 15 15 14 14 14 13 12 12 12 12 13 13 12 12 11 12 12 11 12 12 13 16 17 16 16 17 17 17 16 15 16 16 17 19 21 23 23 21 19 18 17 16 15 14 13 11 8 5 4 5 5 7 8 9 9 11 13 16 19 21 22 23 24 24 24 25 27 27 27 28 29 26 25 27 28 28
12 11 13 15 15 15 15 14 14 14 14 14 13 12 11 11 11 11 12 13 13 13 13 13 13 13 13 13 14 15 17 17 16 16 17 17 17 16 16 16 17 17 17 19 20 21 21 20 19 19 19 18 17 17 17 14 8 6 7 7 7 7 7 8 9 12 15 17 18 20 22 24 24 24 25 27 28 28 29 28 26 26 28 30 30
12 11 13 14 14 14 14 13 14 14 14 13 12 11 10 10 10 11 11 12 12 13 14 14 14 15 15 16 17 19 20 20 19 19 19 19 18 18 18 18 18 19 19 19 19 20 21 21 21 21 21 21 21 21 22 22 18 14 11 10 9 7 7 8 9 10 11 13 15 17 20 22 24 25 26 27 28 29 30 30 27 26 28 30 29
12 11 13 13 13 13 13 13 14 14 13 13 12 11 11 12 12 12 12 12 11 12 13 14 15 16 17 18 19 20 22 22 21 21 20 20 19 19 20 20 20 20 21 20 20 21 22 22 22 22 22 24 25 25 25 25 23 20 16 13 11 8 6 6 7 7 8 10 13 15 16 19 22 25 27 28 30 30 28 27 26 26 28 28 27
12 12 12 12 13 13 12 13 13 14 14 13 13 13 13 13 14 14 13 13 13 14 14 14 15 16 17 17 18 20 21 21 20 20 19 19 19 18 18 19 19 20 20 20 20 21 21 21 21 21 22 23 23 22 23 23 23 21 20 17 15 10 6 3 3 5 7 9 11 12 14 15 18 22 24 25 28 26 21 21 25 27 28 28 27
14 13 13 13 13 13 13 13 14 14 14 12 12 13 13 13 14 14 14 14 15 15 15 16 16 16 16 16 16 18 19 19 18 18 17 17 16 16 16 16 16 18 19 19 19 18 19 20 20 20 20 20 18 17 18 19 19 20 20 19 18 17 16 16 13 9 7 7 9 12 12 11 13 17 19 21 24 23 21 22 25 27 29 29 29
16 15 15 15 15 14 14 13 13 13 12 11 12 13 13 13 14 13 12 13 14 15 15 16 16 15 15 16 16 17 18 18 18 17 17 16 15 15 16 15 15 17 19 19 19 18 18 19 20 20 20 18 16 14 15 16 17 17 16 16 16 17 19 21 19 17 16 13 9 9 11 11 12 12 13 14 16 18 21 24 25 27 31 32 30
17 16 17 16 15 14 13 12 12 12 12 13 14 14 14 14 14 13 13 14 15 16 16 17 17 18 18 19 19 19 20 20 19 18 18 17 16 16 17 16 17 18 19 19 19 19 19 19 20 21 22 20 17 14 13 14 14 14 13 13 14 16 17 16 16 16 16 15 14 11 6 7 11 13 14 13 12 14 16 20 23 27 32 33 31
17 17 17 16 15 14 13 13 13 14 15 16 16 16 16 16 15 15 15 16 17 18 18 18 20 21 22 22 22 22 23 23 23 22 22 21 20 19 18 18 18 18 18 18 19 19 19 20 21 21 21 20 19 18 16 15 13 12 11 10 13 15 14 12 12 13 13 13 14 14 13 10 4 4 8 10 13 14 15 17 18 21 25 29 30
17 17 16 16 15 15 14 14 15 15 16 17 17 17 17 16 16 16 16 17 17 18 18 19 21 22 22 22 23 23 24 24 25 25 25 25 24 24 23 24 23 21 20 20 20 21 21 22 23 23 21 20 20 20 19 19 18 15 13 12 14 14 10 9 10 10 11 12 12 12 14 15 15 13 10 5 1 5 11 15 17 16 19 24 27
17 17 17 16 16 16 16 15 16 16 17 17 17 17 16 16 15 15 16 16 16 18 19 19 20 22 22 22 22 23 24 24 24 25 25 25 25 25 26 27 25 23 23 24 24 25 25 26 26 25 24 22 21 20 19 19 19 19 19 17 15 11 9 10 11 11 11 12 12 13 13 14 15 17 17 16 14 13 8 1 8 13 17 22 24
17 17 17 17 17 17 17 16 16 17 16 16 16 16 16 15 15 15 15 15 16 18 19 19 20 21 21 22 23 24 24 24 24 24 24 25 24 24 25 25 24 23 24 26 26 26 26 26 26 25 25 24 23 22 20 18 18 18 18 16 13 11 11 11 11 12 13 14 14 14 13 13 13 14 16 17 17 18 18 14 9 3 8 15 19
17 18 17 17 17 17 16 16 16 16 15 14 14 15 15 14 14 14 14 15 16 17 18 18 19 21 22 23 24 24 24 24 24 24 24 24 24 23 23 23 23 23 24 25 24 24 23 23 23 22 23 24 24 24 24 22 21 19 16 13 12 12 11 12 12 12 12 11 11 11 11 11 11 10 10 12 14 15 16 16 14 12 8 5 8
18 18 18 17 17 16 16 16 15 14 14 13 13 14 14 14 14 14 14 14 16 17 18 19 20 22 23 24 24 24 24 24 24 24 24 24 24 24 24 24 24 24 24 23 22 21 20 20 19 19 20 21 22 23 25 26 25 23 20 17 14 12 12 12 13 13 12 12 11 10 10 11 11 11 10 9 9 9 9 9 8 9 11 11 9
19 19 18 17 17 16 16 16 15 15 14 13 13 14 14 14 14 14 14 15 17 18 20 20 21 22 23 23 23 24 24 25 25 25 25 25 25 25 25 26 26 25 24 23 21 20 19 17 17 17 18 18 19 21 23 25 25 25 24 23 20 18 17 16 15 13 14 15 15 13 13 13 13 13 12 9 8 7 6 6 5 4 7 10 11
20 19 19 18 17 16 16 16 16 16 15 14 14 15 14 14 15 15 15 17 18 20 20 21 21 22 22 23 24 24 25 26 27 27 27 27 26 26 25 25 25 24 22 21 20 19 18 17 17 18 18 18 19 21 22 23 23 24 24 24 24 24 23 22 21 20 19 17 15 14 13 13 11 11 12 11 10 9 8 8 8 7 6 6 6
21 20 19 19 18 16 16 17 17 17 17 16 16 16 16 16 16 17 18 18 19 20 20 21 21 22 22 22 23 24 25 26 27 28 28 27 27 26 25 25 23 22 21 19 18 18 18 18 18 18 18 19 19 21 21 21 22 24 24 24 24 24 23 22 23 24 24 21 17 15 14 12 10 8 9 11 11 11 11 11 11 11 11 10 7
20 20 20 19 18 17 17 17 18 18 19 19 19 19 18 17 17 19 20 19 19 20 20 20 21 21 21 21 22 23 24 24 25 25 26 26 25 25 25 25 24 23 22 20 19 19 19 19 20 21 20 21 21 22 22 21 22 24 25 25 23 21 21 21 21 23 24 22 19 17 17 17 15 13 10 7 9 11 11 11 11 11 11 11 10
20 20 20 19 19 19 19 18 18 19 20 21 21 21 20 18 18 19 19 19 19 19 19 20 20 19 19 20 21 23 23 23 23 22 22 24 24 23 24 25 25 24 22 20 19 20 20 21 22 23 23 23 23 24 24 23 23 23 24 25 24 22 20 20 21 22 22 22 21 19 19 19 19 17 14 10 9 10 10 9 8 9 9 9 9
19 19 19 19 20 21 21 20 20 20 20 21 21 22 21 20 18 19 19 19 18 18 18 19 18 17 18 20 21 22 22 21 20 19 20 22 23 22 22 23 23 23 21 20 20 22 23 23 23 23 23 24 24 24 23 23 23 23 24 24 24 24 23 21 21 21 20 21 21 20 20 20 19 17 17 15 14 13 11 8 6 8 8 7 8
19 19 18 19 20 21 21 22 21 20 20 19 20 21 22 21 21 20 19 19 18 18 18 18 17 17 17 18 19 19 19 17 17 17 18 21 22 22 22 22 22 22 21 21 22 24 25 25 24 23 23 25 25 24 23 22 22 22 22 22 23 24 23 23 22 21 20 20 20 20 20 20 18 17 16 15 15 15 13 8 5 9 9 9 10
17 18 18 18 19 20 21 21 21 21 21 20 18 19 21 22 22 22 20 20 19 19 19 18 18 17 16 16 16 17 16 15 15 16 18 20 21 21 21 22 22 22 22 23 25 27 27 27 25 24 24 25 26 25 24 23 23 22 21 22 22 22 22 23 22 21 19 19 19 20 21 20 18 17 17 16 15 15 13 7 4 7 9 9 10
16 17 18 18 18 19 20 20 20 21 21 21 19 18 18 20 22 22 22 21 21 20 21 21 20 20 19 18 18 18 17 17 16 17 19 21 21 20 21 22 23 23 23 26 27 27 27 26 25 23 22 23 24 24 23 23 23 23 22 22 21 20 20 21 21 21 19 18 18 20 21 21 20 20 19 18 17 17 14 10 4 3 6 7 7
14 16 17 17 17 18 19 19 20 20 21 21 20 18 18 18 19 20 21 21 21 21 22 22 22 22 22 21 20 20 20 20 20 20 20 21 20 20 21 22 23 24 26 27 28 27 26 25 24 22 20 20 20 20 21 21 21 21 21 21 21 19 18 19 20 20 19 18 18 19 20 21 22 22 22 20 18 17 16 15 10 2 5 6 5
15 15 15 15 16 17 18 18 19 19 19 19 19 18 18 17 16 17 19 20 20 21 21 21 21 21 21 21 20 20 21 21 21 21 21 21 20 19 20 22 24 25 26 27 27 26 25 24 23 21 19 17 17 17 17 17 17 18 18 19 19 19 19 19 19 19 18 17 18 18 20 20 22 23 23 21 19 17 16 17 15 8 3 5 3
16 16 16 15 15 16 17 17 17 17 17 18 18 18 18 17 16 16 17 18 19 19 19 19 19 19 19 19 19 19 20 20 21 21 21 21 20 19 20 23 24 24 25 26 26 26 25 24 23 21 18 17 15 15 14 14 13 13 14 15 16 17 18 19 19 17 16 15 16 17 18 19 20 22 22 22 21 19 16 16 16 13 7 3 2
17 17 16 15 15 15 16 17 16 16 15 15 16 17 17 17 16 16 16 17 18 19 19 19 19 19 18 18 18 18 18 19 19 20 20 21 21 21 22 22 23 23 24 24 24 25 25 25 23 21 19 18 16 14 13 14 13 11 10 11 13 15 15 16 17 16 15 13 13 13 15 17 18 19 20 21 21 19 16 15 14 13 12 10 8
15 16 16 15 15 15 16 17 16 15 15 14 14 15 15 16 16 16 16 18 18 19 19 19 19 19 19 19 18 17 16 17 17 18 19 20 21 22 22 22 21 21 22 22 23 24 24 25 24 22 20 18 17 15 14 13 12 11 10 10 10 11 11 10 11 13 13 12 11 11 12 13 14 16 17 18 19 19 17 16 14 12 11 10 9
16 16 16 15 15 16 17 17 16 15 15 14 13 13 13 13 14 15 16 17 17 17 17 17 17 17 18 18 18 17 16 16 16 17 18 19 20 21 21 21 21 21 21 20 20 21 22 23 23 23 21 20 19 18 17 15 14 12 11 10 9 9 9 9 10 11 12 11 10 9 9 10 11 12 13 14 14 15 16 15 14 12 11 11 10
18 17 17 18 18 17 16 16 15 15 15 14 13 11 10 11 13 15 15 15 15 15 15 14 14 15 15 15 15 15 15 16 16 16 17 18 19 19 20 20 20 20 20 19 19 20 21 22 22 22 22 21 20 19 19 18 17 15 13 12 11 10 8 8 9 10 11 11 9 8 8 8 9 10 10 10 11 12 12 13 13 12 11 10 9
18 18 20 21 20 18 16 15 15 14 14 12 11 9 8 9 11 13 13 12 12 11 11 11 11 11 11 12 12 12 13 14 15 15 15 16 17 17 18 18 18 18 18 18 18 19 20 21 21 21 21 21 20 20 20 19 18 17 15 14 13 12 10 8 7 7 8 10 10 8 7 7 8 9 9 9 8 9 9 11 12 11 10 8 6
17 17 19 19 18 17 16 15 14 13 12 10 8 6 6 7 11 12 11 9 8 8 7 7 7 8 8 8 9 10 11 11 12 13 14 14 14 14 15 16 17 17 17 17 17 17 18 19 20 20 21 21 21 21 21 20 18 17 16 15 14 13 12 11 9 8 8 8 9 9 8 8 8 8 8 8 8 6 6 8 10 10 10 7 4
15 15 16 16 15 15 15 15 14 13 11 9 7 6 7 10 12 11 9 7 6 5 4 4 3 3 4 5 6 8 9 9 10 10 11 12 12 12 13 14 15 15 15 16 16 16 16 17 18 19 20 21 22 22 22 20 19 19 17 16 14 14 13 12 11 10 9 8 7 7 7 7 6 5 6 6 6 5 5 6 8 8 8 8 5
14 14 14 14 14 13 13 14 14 12 10 8 8 8 10 11 11 8 6 5 4 3 2 1 0 0 1 3 4 6 7 7 8 8 10 10 11 11 11 12 12 12 13 14 15 15 15 15 15 17 18 20 22 23 22 20 19 20 19 18 16 15 14 13 12 11 11 9 7 6 6 6 5 5 5 4 5 5 6 6 7 6 6 7 6
15 14 14 15 16 15 14 13 13 11 9 9 9 10 10 9 8 6 5 3 2 1 2 2 2 2 1 1 3 4 6 6 7 7 8 9 9 9 9 9 10 10 11 12 13 13 14 14 14 15 17 18 19 21 21 19 18 19 19 19 19 18 16 14 13 12 12 11 9 7 7 6 5 6 6 6 5 6 7 7 6 5 4 4 5
16 14 13 14 15 17 16 14 12 11 10 10 10 10 10 9 7 5 4 3 2 2 2 2 2 2 2 2 3 4 5 6 6 6 6 7 8 9 8 8 8 9 10 11 11 11 12 13 13 14 15 16 17 18 19 18 16 17 18 19 20 20 19 17 15 13 12 11 10 9 8 8 8 8 7 7 7 6 6 6 6 5 4 3 4
14 13 12 12 13 14 15 14 13 12 11 10 9 9 9 9 8 7 6 5 4 4 4 4 4 4 4 4 4 5 5 6 6 6 6 7 8 8 9 9 9 10 10 11 10 10 10 11 11 12 13 14 15 16 17 16 15 16 18 19 20 20 21 20 18 16 14 12 11 10 10 9 9 10 10 9 9 8 7 7 7 7 6 6 7
14 13 13 12 12 13 13 14 14 13 11 10 10 9 9 9 9 9 9 8 6 6 6 6 6 6 6 6 6 6 6 7 7 7 7 8 8 9 10 10 10 10 11 10 10 9 9 9 10 11 11 12 13 14 14 14 14 14 16 18 20 21 21 21 20 19 17 15 13 11 11 10 10 10 11 11 11 11 10 9 8 8 9 10 10
15 15 15 15 14 13 12 12 12 12 11 10 11 11 10 10 10 10 10 9 9 8 8 8 8 8 8 9 8 7 7 8 8 9 9 9 9 9 10 11 11 11 11 10 9 8 8 8 9 9 9 10 11 11 12 13 13 13 14 16 18 20 21 21 21 21 20 18 16 14 12 12 11 11 11 11 12 13 13 13 11 11 10 11 11
16 16 16 16 17 16 13 11 11 12 11 12 12 11 11 11 10 10 10 10 9 9 9 9 9 9 10 10 9 9 9 10 10 10 10 10 10 10 11 11 11 11 11 10 8 7 7 8 8 8 8 9 9 10 10 11 11 12 12 14 16 18 19 20 21 21 21 20 19 17 15 13 12 12 12 11 12 12 13 14 14 13 13 12 11
16 16 16 17 18 18 16 14 12 12 12 13 13 13 12 12 12 11 11 11 10 9 9 10 11 11 11 11 11 11 11 11 11 10 10 9 10 11 11 11 11 11 11 10 9 8 8 8 9 9 9 9 9 8 9 10 11 11 12 13 14 16 17 19 20 20 21 21 21 20 18 16 14 13 13 12 12 12 12 13 14 14 13 13 13
Wind_Direction
200 194 189 206 244 255 264 277 287 308 334 334 331 333 337 339 335 330 335 342 343 345 348 350 351 355 357 355 357 1 3 5 5 5 10 12 10 4 357 351 344 343 343 342 350 360 357 349 333 317 302 283 266 258 251 240 236 241 243 241 241 239 232 230 233 237 239 238 238 240 242 239 231 226 224 221 216 212 212 213 213 211 208 208 209
193 193 198 225 273 290 303 306 329 341 340 337 337 345 353 358 358 351 349 350 351 352 354 354 355 359 2 359 1 8 10 11 11 12 17 20 20 15 6 359 352 347 347 350 353 356 354 348 342 335 327 304 275 259 254 245 237 240 246 247 243 243 241 236 233 236 238 237 237 239 241 239 231 224 223 222 217 212 212 214 213 211 208 207 209
56 41 37 35 360 354 10 30 21 349 344 347 353 9 15 12 12 8 1 360 2 2 2 5 8 12 15 12 14 18 16 17 21 21 22 24 23 20 15 12 11 7 1 354 348 344 342 340 336 329 330 332 314 281 270 268 255 246 245 248 251 258 258 247 236 234 236 237 239 242 240 234 227 221 222 223 219 213 212 213 213 212 208 205 208
28 29 45 63 71 103 104 98 81 14 11 16 21 29 31 26 25 21 13 12 16 18 19 20 22 24 25 23 21 20 18 23 27 26 25 25 25 23 19 18 20 20 17 5 353 349 345 338 329 326 327 327 321 312 309 319 304 267 251 243 244 251 255 249 236 233 236 238 241 243 242 236 226 221 223 224 219 215 215 216 215 214 212 208 207
57 58 72 115 134 131 125 122 110 66 33 31 36 43 44 40 36 29 24 26 30 31 31 32 30 28 27 24 20 18 21 27 31 30 28 26 27 25 21 19 21 23 21 9 3 5 4 356 337 329 340 339 321 311 317 339 353 292 260 246 240 239 237 235 237 242 246 244 243 242 241 236 226 221 222 222 218 217 219 218 216 216 215 211 209
77 97 116 129 130 126 123 116 95 65 46 49 55 58 56 50 45 44 41 41 40 39 37 36 33 32 31 27 24 24 28 31 33 33 30 28 29 27 24 22 20 18 15 8 5 4 2 1 357 348 358 3 349 310 293 296 274 225 231 239 243 236 218 211 229 247 256 252 245 241 238 235 229 226 224 221 217 216 217 216 215 216 213 209 210
104 111 119 124 123 118 114 102 86 76 73 72 71 73 71 64 61 59 55 52 49 45 40 37 36 38 39 38 37 38 39 38 37 36 34 32 32 28 25 24 21 19 19 17 15 12 6 3 1 354 354 360 355 333 305 295 275 245 236 241 250 253 243 226 228 243 254 250 241 239 240 239 236 233 227 222 220 219 218 216 211 210 208 208 211
110 114 118 119 114 108 102 94 88 85 83 82 81 80 79 74 70 67 61 56 53 48 44 43 45 48 49 49 49 47 46 44 40 38 37 36 35 34 33 30 28 26 27 27 27 25 21 14 7 1 355 352 349 349 356 340 292 257 244 241 244 256 260 248 238 243 248 245 240 241 244 244 241 234 225 221 220 218 219 218 211 207 205 206 207
114 117 115 111 106 103 99 94 91 89 87 86 84 81 79 75 72 68 61 56 54 51 51 52 52 51 50 50 49 47 47 45 40 35 31 31 32 37 40 39 37 34 33 33 31 28 26 21 16 9 3 358 350 346 358 360 327 272 252 244 240 249 257 251 244 247 248 245 243 244 245 242 238 232 227 224 221 219 218 213 210 208 203 200 199
120 118 112 108 106 104 101 96 92 89 86 85 83 80 79 76 70 66 61 58 56 55 54 53 52 48 43 40 40 43 48 48 42 33 27 24 25 29 31 31 31 31 33 35 32 28 26 25 21 13 6 7 7 355 347 345 329 301 283 260 244 252 260 253 246 247 248 246 245 245 243 241 237 234 233 230 225 222 216 207 205 205 198 195 196
125 119 112 110 109 107 105 101 96 92 88 85 83 81 80 75 69 65 62 61 61 59 55 51 50 47 44 42 40 45 51 49 41 34 28 23 22 23 23 21 21 21 25 29 29 26 25 25 25 21 14 12 11 5 357 345 322 302 297 282 262 260 262 260 257 255 254 252 250 248 248 249 247 242 239 235 228 222 214 205 203 204 198 196 196
125 120 115 115 116 116 114 109 103 98 94 90 87 84 80 75 70 66 65 65 65 63 59 56 55 55 54 54 53 54 54 49 39 33 28 22 20 20 21 21 23 24 26 29 30 30 29 27 26 25 22 17 14 13 11 7 354 331 315 303 287 275 270 276 280 275 269 265 261 260 261 262 259 251 245 237 229 223 214 205 204 206 203 201 198
127 122 120 120 122 122 120 115 108 102 97 92 88 84 79 74 70 67 66 67 66 64 62 60 59 58 56 57 58 57 54 48 42 38 33 27 23 24 27 29 32 34 36 37 36 35 32 29 28 29 28 25 25 25 22 19 14 5 352 338 322 305 294 294 290 283 279 274 269 270 273 272 268 261 251 239 230 224 214 205 205 208 208 206 202
127 120 120 124 128 126 124 119 111 104 99 93 88 83 76 72 71 70 69 68 65 64 62 60 58 56 54 54 56 55 52 47 43 41 39 36 32 31 33 35 36 39 40 41 41 39 36 35 38 40 39 36 32 30 29 26 21 17 14 2 344 324 299 284 280 277 277 272 268 269 271 272 270 265 257 245 235 227 215 206 206 209 209 208 204
127 122 123 129 131 127 122 117 110 105 100 95 89 83 77 74 74 73 71 69 68 67 66 64 62 60 58 56 55 55 53 47 42 40 38 37 36 34 33 33 35 38 40 42 45 47 46 45 45 44 43 41 35 29 30 29 24 22 24 23 18 12 7 357 299 277 274 270 267 268 272 273 270 266 261 251 238 226 213 207 212 213 212 209 207
129 127 126 127 124 119 113 110 108 104 100 95 89 83 78 77 76 75 75 75 75 74 72 70 68 66 64 60 58 59 57 51 45 40 37 35 34 32 31 30 31 34 36 37 40 46 47 44 41 37 36 37 31 23 25 26 23 23 25 27 29 30 33 35 30 15 349 307 276 268 271 278 274 262 254 249 239 223 210 210 215 218 219 217 214
123 122 118 115 112 110 108 107 105 103 100 95 89 84 82 81 81 82 81 81 80 77 74 73 71 69 67 62 59 60 59 54 49 45 41 37 36 37 37 35 35 37 37 35 34 36 38 38 36 32 29 26 19 15 17 18 18 23 28 29 28 28 31 32 30 27 24 14 345 298 264 253 256 248 232 228 230 223 219 219 216 219 225 225 221
117 114 110 107 106 106 105 104 104 103 100 94 90 88 87 85 85 84 82 81 80 77 75 74 72 69 68 65 62 61 59 56 52 49 46 41 39 43 44 44 45 46 45 42 39 39 40 39 36 33 30 25 18 15 14 10 11 19 27 29 27 27 31 33 30 27 25 23 19 4 320 249 233 227 218 214 213 214 223 225 221 222 228 230 229
115 112 109 108 107 105 104 103 101 100 98 95 93 91 89 87 86 85 84 82 82 80 78 77 75 72 70 68 66 64 61 59 54 51 50 47 45 46 46 47 48 49 48 47 45 43 42 40 38 34 30 25 22 21 18 15 18 27 28 23 22 26 30 30 28 26 22 21 24 19 11 9 360 235 224 222 215 212 217 220 222 229 232 233 235
118 116 114 113 111 107 105 103 101 99 97 96 95 93 90 90 89 87 86 85 84 83 80 78 76 74 71 68 66 64 61 58 54 51 49 47 46 46 46 46 47 47 48 47 45 43 41 38 37 32 27 24 24 24 23 22 24 28 27 24 27 30 27 20 21 20 11 10 12 6 360 359 0 6 10 9 219 217 221 216 216 224 229 232 235
122 121 119 117 114 111 109 107 103 100 98 97 97 96 94 93 91 89 88 86 85 82 80 78 76 73 70 66 63 61 58 56 53 50 48 46 44 43 45 46 46 46 48 48 47 45 43 41 39 34 30 28 26 25 26 26 25 29 31 32 32 27 16 14 20 13 1 357 354 347 343 336 331 337 349 2 18 26 23 268 217 219 224 230 231
127 125 122 119 117 115 113 110 107 104 103 102 101 99 98 95 92 91 89 86 83 80 77 75 73 71 68 64 61 59 57 55 53 51 48 47 46 44 45 46 45 44 46 48 48 47 45 43 42 38 36 36 34 32 31 29 28 31 34 33 31 25 18 14 8 356 349 346 341 337 340 337 326 319 321 331 348 4 13 14 6 315 239 236 235
129 127 124 121 118 116 114 112 111 110 109 107 104 102 101 98 94 91 88 84 81 79 76 73 71 70 68 64 62 59 57 55 53 51 49 48 47 46 47 46 43 41 42 44 43 44 44 44 41 39 39 41 41 40 40 38 35 33 30 23 18 16 17 19 17 9 358 349 342 342 348 352 349 341 329 324 330 340 350 357 3 10 9 315 267
131 127 124 121 118 116 115 114 114 113 112 110 106 104 102 99 95 91 87 84 82 80 77 75 73 71 69 66 62 58 55 54 52 50 49 48 47 46 45 43 41 38 38 39 38 37 38 39 38 38 40 43 44 44 44 43 41 38 34 29 21 10 6 13 18 17 14 14 14 16 16 13 11 9 3 352 346 343 340 342 355 16 29 25 7
130 126 123 121 119 118 117 117 117 115 114 113 108 105 104 101 97 94 90 86 83 82 81 79 76 73 70 65 61 57 54 53 52 51 50 50 49 47 44 42 39 37 37 37 36 34 34 34 33 33 36 40 44 46 45 41 38 37 36 34 33 29 25 23 19 14 16 22 28 32 33 31 27 22 16 6 353 345 337 333 345 19 41 43 42
127 124 123 120 119 120 120 119 119 118 117 116 110 106 104 101 97 94 91 88 86 85 84 80 76 72 69 65 61 57 53 51 49 47 46 47 48 48 47 44 41 39 40 40 37 35 35 34 33 33 35 37 39 42 42 38 36 37 37 35 34 33 33 32 30 28 28 28 27 28 31 33 35 33 29 24 14 5 357 351 349 350 354 2 25
126 123 121 119 119 121 120 119 120 119 117 114 110 107 104 101 99 95 91 89 88 86 84 79 75 70 67 64 61 58 54 51 48 45 42 42 44 46 46 44 42 41 44 44 41 40 40 39 39 41 43 44 44 42 39 35 35 37 37 36 35 32 32 33 32 31 30 28 26 22 18 17 22 26 27 30 33 31 26 22 21 17 8 358 352
128 124 121 119 118 117 117 119 119 118 116 112 109 107 105 103 100 96 92 89 86 84 82 78 74 70 66 63 60 58 55 51 48 45 41 40 41 43 44 43 42 41 43 43 43 42 42 42 42 42 42 43 43 42 40 38 37 37 36 34 33 32 32 34 33 30 28 26 27 27 20 14 13 13 14 24 38 39 30 23 28 33 30 26 27
129 127 124 121 118 115 115 117 117 117 116 113 110 107 105 102 100 98 96 92 87 84 82 77 73 70 67 63 58 54 53 51 47 43 41 39 40 42 44 43 42 40 40 40 41 41 39 38 39 38 37 38 39 39 39 37 38 37 33 30 30 31 30 29 29 26 22 20 21 22 18 14 12 11 11 15 32 43 30 10 18 40 45 43 44
131 129 126 123 119 117 115 114 113 115 115 114 112 110 107 104 102 99 96 92 88 84 81 77 72 67 64 63 58 52 50 49 45 40 37 38 40 44 46 46 44 42 39 38 40 41 40 39 40 40 37 37 38 39 37 34 34 35 31 28 28 29 28 27 25 21 16 15 15 12 11 11 13 14 14 13 19 29 23 6 24 56 59 55 59
134 131 129 125 121 117 114 112 110 110 111 111 113 112 110 107 104 99 95 92 87 82 78 75 72 67 61 60 58 53 48 45 41 37 35 37 41 45 48 48 46 43 38 38 41 43 42 42 45 46 43 40 40 40 37 33 31 31 29 28 29 28 26 24 21 16 13 13 11 8 9 12 14 16 16 12 12 14 11 9 50 80 79 74 77
138 134 131 128 123 118 114 111 108 108 107 107 109 110 109 108 106 102 96 90 84 81 77 74 72 70 64 60 59 56 51 47 44 42 41 42 45 47 48 50 49 45 41 41 43 44 44 45 48 50 49 45 42 42 40 36 33 30 28 29 29 28 25 23 19 16 15 15 12 10 13 17 18 18 18 17 16 14 14 17 62 94 94 90 90
144 138 134 130 126 121 115 110 108 105 103 102 104 105 106 107 108 105 99 92 86 83 78 74 72 72 70 68 66 63 60 57 54 51 48 46 46 47 49 52 51 48 46 45 44 44 44 46 49 52 50 47 45 43 41 40 38 36 34 33 31 28 24 22 20 19 19 18 15 16 18 21 24 22 20 19 18 17 22 29 38 111 121 110 101
150 142 136 132 129 125 120 115 111 108 103 102 103 104 104 106 107 107 103 99 94 89 82 76 73 72 72 71 69 65 63 60 58 55 51 48 46 46 49 52 51 49 47 46 45 44 43 44 46 48 48 46 44 42 41 40 40 39 38 38 36 31 25 22 22 24 23 20 18 20 21 25 28 27 23 20 17 16 21 24 20 33 155 145 123
157 148 140 135 133 130 126 121 117 112 107 102 101 101 102 104 105 105 103 101 99 94 87 81 76 73 72 71 68 64 61 59 58 56 53 50 48 47 49 51 50 48 48 47 45 43 41 41 41 42 42 42 40 37 35 35 35 35 34 34 35 34 31 29 26 26 25 24 25 27 28 29 32 31 27 24 21 18 20 23 22 26 138 167 168
162 155 147 142 138 135 131 128 124 118 112 106 102 101 101 102 102 101 101 100 98 94 89 83 78 75 72 69 66 63 61 58 56 55 52 50 47 47 48 49 48 46 46 46 45 43 41 39 37 36 36 37 36 33 29 26 27 28 26 27 28 28 29 31 29 25 26 28 29 31 33 34 34 33 31 28 26 23 22 24 27 31 38 48 35
164 160 153 148 143 138 136 135 132 127 120 113 106 103 101 99 98 98 99 100 98 94 89 84 79 76 72 67 63 61 59 57 55 52 49 47 45 44 45 46 45 44 43 43 43 42 41 39 37 33 32 32 31 30 27 24 22 19 14 15 18 15 15 22 25 24 26 30 28 28 33 37 36 31 26 24 25 26 24 24 28 32 33 34 36
164 161 158 154 149 143 140 141 139 134 129 123 115 108 102 98 97 100 102 102 99 94 90 85 79 75 71 66 62 58 56 55 53 50 47 44 42 41 42 42 41 40 41 42 42 41 40 39 38 34 31 29 27 26 24 20 18 14 6 2 4 2 1 8 13 14 21 31 34 34 37 40 37 29 20 17 20 22 21 20 21 22 24 24 23
162 160 158 156 152 146 142 141 140 138 135 132 125 115 105 99 101 105 106 104 100 95 90 86 80 75 70 65 61 56 52 50 50 48 45 42 40 39 39 38 38 37 37 38 40 39 37 36 35 34 33 30 26 23 20 16 13 11 7 4 1 360 2 5 3 2 10 20 29 34 37 38 37 31 23 19 21 21 18 16 14 10 10 14 14
158 155 155 154 153 151 147 145 143 143 141 137 131 121 108 102 108 113 110 105 100 95 90 85 80 74 69 64 59 54 49 45 44 44 43 41 39 37 36 34 34 34 33 33 34 35 33 31 30 30 31 32 30 26 22 17 13 9 7 6 3 359 360 2 359 359 3 6 7 14 24 27 29 29 25 23 27 30 25 20 16 9 3 6 11
157 154 154 153 153 154 154 154 152 149 146 143 137 124 107 106 119 124 119 110 104 97 90 85 80 74 68 62 56 51 47 43 40 39 39 38 36 34 33 32 32 30 29 28 27 28 29 28 27 27 28 30 30 29 26 21 17 13 9 7 3 359 354 349 344 344 351 354 354 355 357 358 1 7 9 8 13 22 23 20 20 15 3 353 352
161 159 159 160 160 160 161 163 164 161 155 149 142 127 113 121 132 134 129 122 116 107 97 88 79 71 66 60 51 46 43 40 36 34 34 33 31 29 29 30 30 28 26 25 23 22 24 25 25 27 28 28 27 25 24 22 21 18 13 8 5 3 360 353 346 336 330 334 343 347 347 348 350 353 355 353 352 1 12 12 14 16 9 357 335
163 165 169 171 171 169 168 172 175 172 160 148 142 137 133 135 138 139 135 130 125 117 106 91 76 67 63 55 46 39 35 32 30 29 28 26 26 25 25 27 28 27 25 23 21 19 21 22 23 26 27 26 24 22 21 22 22 21 18 13 8 5 3 359 354 347 336 324 320 324 335 347 348 342 344 348 347 353 2 358 357 3 6 2 346
162 172 181 185 185 182 178 176 175 169 155 142 142 145 144 141 139 137 133 131 134 142 151 166 318 329 33 37 34 29 23 20 20 22 22 20 20 20 20 22 25 25 23 21 19 18 18 19 22 24 24 24 22 21 22 25 26 24 23 20 15 11 6 1 358 357 352 343 324 307 309 326 335 327 320 319 320 323 330 337 341 345 349 355 357
160 167 175 184 192 195 192 184 178 173 164 154 152 154 153 150 146 140 135 135 145 180 212 232 242 240 261 352 14 13 9 7 8 11 14 14 14 14 14 15 19 21 18 14 13 14 15 16 18 21 21 19 19 19 20 24 28 28 26 25 22 18 13 7 1 357 355 352 343 321 301 297 303 311 310 303 301 310 319 325 331 333 332 341 355
162 163 164 171 183 194 198 196 191 185 176 166 163 165 166 166 166 164 169 184 210 231 242 248 246 246 264 307 341 353 357 356 354 356 1 3 5 7 7 5 6 11 11 8 5 7 10 13 15 16 15 13 14 16 16 18 24 28 27 26 25 23 19 14 8 1 355 351 348 338 319 300 288 287 294 298 299 305 313 315 316 321 320 314 313
177 179 176 171 173 181 190 194 193 189 183 178 178 180 182 185 191 200 214 228 240 255 271 282 284 279 284 302 321 335 345 346 342 340 341 343 350 357 359 357 355 357 360 1 0 360 1 4 5 7 7 5 6 9 11 12 18 24 25 24 25 24 21 18 14 9 1 353 346 339 331 317 299 283 279 281 284 286 291 294 295 298 302 301 299
194 198 198 193 183 179 184 190 194 195 196 197 195 195 201 209 214 217 224 235 248 264 278 290 296 297 300 306 312 320 329 334 332 328 325 326 333 342 347 350 350 350 350 352 355 357 357 354 351 352 354 355 357 1 3 3 8 16 20 21 22 22 21 18 15 12 8 2 353 343 334 328 317 299 284 275 270 269 272 275 278 284 289 293 295
207 211 213 211 203 195 192 196 198 200 205 209 209 211 219 225 226 229 236 244 254 265 277 290 299 304 306 306 306 307 313 320 322 320 317 317 321 328 335 341 345 345 343 343 346 352 357 355 349 347 348 348 350 354 356 354 356 4 11 14 16 19 19 17 15 12 10 6 1 353 342 334 327 318 303 287 274 266 264 264 266 272 280 285 290
216 219 220 219 215 208 204 203 202 203 207 212 216 221 226 230 234 241 250 257 262 268 277 286 294 300 303 302 296 294 299 308 315 314 310 309 311 316 322 330 337 341 339 337 336 342 349 352 353 355 355 352 349 349 349 346 344 349 358 4 7 10 13 13 12 12 11 8 5 1 353 343 335 329 320 307 291 279 271 266 264 266 269 272 277
222 221 217 215 215 215 215 214 212 210 212 216 221 228 234 237 243 250 257 263 267 271 277 282 285 291 297 298 294 292 296 305 312 313 311 309 310 312 316 322 328 332 334 333 330 331 335 339 342 346 351 353 350 344 340 337 334 334 341 350 355 358 2 5 6 7 8 9 7 5 1 354 345 338 331 322 309 296 285 276 270 267 266 267 268